Tracking 28794 objects as of 19-Apr-2024
HD Live streaming from Space Station
objects crossing your sky now

COSMOS 249 DEB

Track COSMOS 249 DEB now!
10-day predictions


NORAD ID: 19362
Int'l Code: 1968-091DJ
Perigee: 540.6 km
Apogee: 1,208.1 km
Inclination: 62.8 °
Period: 102.3 minutes
Semi major axis: 7245 km
RCS: 0.01 m2 (small)
Launch date: October 20, 1968
Source: Commonwealth of Independent States (former USSR) (CIS)
Launch site: TYURATAM MISSILE AND SPACE COMPLEX (TTMTR)

Note: This is SATELLITE DEBRIS
Your satellite tracking list
Your tracking list is empty




NASA's NSSDC Master Catalog

Two Line Element Set (TLE):
1 19362U 68091DJ  24110.53607888  .00011798  00000-0  26217-2 0  9994
2 19362  62.7905 156.6805 0460633 300.5548  55.0807 14.07708409808191
Source of the keplerian elements: AFSPC